Year,Month,Day,Hour,Minute,Value (Times are PST for temperature in C)
2020,09,29,08,43,13.20
2020,09,29,08,44,13.20
2020,09,29,08,45,13.20
2020,09,29,08,46,13.20
2020,09,29,08,47,13.20
2020,09,29,08,48,13.20
2020,09,29,08,49,13.20
2020,09,29,08,50,13.20
2020,09,29,08,51,13.20
2020,09,29,08,52,13.20
2020,09,29,08,53,13.20
2020,09,29,08,54,13.20
2020,09,29,08,55,13.20
2020,09,29,08,56,13.30
2020,09,29,08,57,13.30
2020,09,29,08,58,13.30
2020,09,29,08,59,13.30
2020,09,29,09,00,13.30
2020,09,29,09,01,13.40
2020,09,29,09,02,13.40
2020,09,29,09,03,13.40
2020,09,29,09,04,13.50
2020,09,29,09,05,13.50
2020,09,29,09,06,13.50
2020,09,29,09,07,13.50
2020,09,29,09,08,13.60
2020,09,29,09,09,13.60
2020,09,29,09,10,13.60
2020,09,29,09,11,13.60
2020,09,29,09,12,13.60
2020,09,29,09,13,13.70
2020,09,29,09,14,13.70
2020,09,29,09,15,13.70
2020,09,29,09,16,13.80
2020,09,29,09,17,13.80
2020,09,29,09,18,13.80
2020,09,29,09,19,13.90
2020,09,29,09,20,13.90
2020,09,29,09,21,14.00
2020,09,29,09,22,14.00
2020,09,29,09,23,14.10
2020,09,29,09,24,14.10
2020,09,29,09,25,14.10
2020,09,29,09,26,14.20
2020,09,29,09,27,14.20
2020,09,29,09,28,14.20
2020,09,29,09,29,14.20
2020,09,29,09,30,14.30
2020,09,29,09,31,14.30
2020,09,29,09,32,14.30
2020,09,29,09,33,14.30
2020,09,29,09,34,14.30
2020,09,29,09,35,14.40
2020,09,29,09,36,14.40
2020,09,29,09,37,14.40
2020,09,29,09,38,14.40
2020,09,29,09,39,14.50
2020,09,29,09,40,14.50
2020,09,29,09,41,14.50
2020,09,29,09,42,14.60
2020,09,29,09,43,14.60
2020,09,29,09,44,14.60
2020,09,29,09,45,14.60
2020,09,29,09,46,14.70
2020,09,29,09,47,14.70
2020,09,29,09,48,14.70
2020,09,29,09,49,14.80
2020,09,29,09,50,14.80
2020,09,29,09,51,14.80
2020,09,29,09,52,14.90
2020,09,29,09,53,14.90
2020,09,29,09,54,14.90
2020,09,29,09,55,14.90
2020,09,29,09,56,15.00
2020,09,29,09,57,15.00
2020,09,29,09,58,15.00
2020,09,29,09,59,15.10
2020,09,29,10,00,15.10
2020,09,29,10,01,15.20
2020,09,29,10,02,15.20
2020,09,29,10,03,15.20
2020,09,29,10,04,15.20
2020,09,29,10,05,15.30
2020,09,29,10,06,15.30
2020,09,29,10,07,15.40
2020,09,29,10,08,15.40
2020,09,29,10,09,15.40
2020,09,29,10,10,15.40
2020,09,29,10,11,15.50
2020,09,29,10,12,15.50
2020,09,29,10,13,15.50
2020,09,29,10,14,15.50
2020,09,29,10,15,15.50
2020,09,29,10,16,15.50
2020,09,29,10,17,15.50
2020,09,29,10,18,15.50
2020,09,29,10,19,15.50
2020,09,29,10,20,15.60
2020,09,29,10,21,15.60
2020,09,29,10,22,15.60
2020,09,29,10,23,15.70
2020,09,29,10,24,15.70
2020,09,29,10,25,15.80
2020,09,29,10,26,15.80
2020,09,29,10,27,15.80
2020,09,29,10,28,15.90
2020,09,29,10,29,15.90
2020,09,29,10,30,15.90
2020,09,29,10,31,15.90
2020,09,29,10,32,16.00
2020,09,29,10,33,16.00
2020,09,29,10,34,16.10
2020,09,29,10,35,16.10
2020,09,29,10,36,16.10
2020,09,29,10,37,16.20
2020,09,29,10,38,16.20
2020,09,29,10,39,16.30
2020,09,29,10,40,16.30
2020,09,29,10,41,16.40
2020,09,29,10,42,16.50
2020,09,29,10,43,16.60
2020,09,29,10,44,16.60
2020,09,29,10,45,16.70
2020,09,29,10,46,16.70
2020,09,29,10,47,16.80
2020,09,29,10,48,16.80
2020,09,29,10,49,16.80
2020,09,29,10,50,16.90
2020,09,29,10,51,16.90
2020,09,29,10,52,17.00
2020,09,29,10,53,17.00
2020,09,29,10,54,17.10
2020,09,29,10,55,17.20
2020,09,29,10,56,17.20
2020,09,29,10,57,17.30
2020,09,29,10,58,17.30
2020,09,29,10,59,17.40
2020,09,29,11,00,17.50
2020,09,29,11,01,17.50
2020,09,29,11,02,17.60
2020,09,29,11,03,17.70
2020,09,29,11,04,17.70
2020,09,29,11,05,17.80
2020,09,29,11,06,17.80
2020,09,29,11,07,17.80
2020,09,29,11,08,17.80
2020,09,29,11,09,17.80
2020,09,29,11,10,17.90
2020,09,29,11,11,17.80
2020,09,29,11,12,17.80
2020,09,29,11,13,17.80
2020,09,29,11,14,17.90
2020,09,29,11,15,17.90
2020,09,29,11,16,18.00
2020,09,29,11,17,18.00
2020,09,29,11,18,18.10
2020,09,29,11,19,18.10
2020,09,29,11,20,18.20
2020,09,29,11,21,18.20
2020,09,29,11,22,18.20
2020,09,29,11,23,18.20
2020,09,29,11,24,18.30
2020,09,29,11,25,18.30
2020,09,29,11,26,18.30
2020,09,29,11,27,18.40
2020,09,29,11,28,18.40
2020,09,29,11,29,18.50
2020,09,29,11,30,18.60
2020,09,29,11,31,18.60
2020,09,29,11,32,18.60
2020,09,29,11,33,18.60
2020,09,29,11,34,18.60
2020,09,29,11,35,18.60
2020,09,29,11,36,18.60
2020,09,29,11,37,18.70
2020,09,29,11,38,18.80
2020,09,29,11,39,18.80
2020,09,29,11,40,18.80
2020,09,29,11,41,18.90
2020,09,29,11,42,18.90
2020,09,29,11,43,18.90
2020,09,29,11,44,18.90
2020,09,29,11,45,19.00
2020,09,29,11,46,19.10
2020,09,29,11,47,19.10
2020,09,29,11,48,19.20
2020,09,29,11,49,19.20
2020,09,29,11,50,19.20
2020,09,29,11,51,19.20
2020,09,29,11,52,19.20
2020,09,29,11,53,19.20
2020,09,29,11,54,19.20
2020,09,29,11,55,19.20
2020,09,29,11,56,19.20
2020,09,29,11,57,19.30
2020,09,29,11,58,19.30
2020,09,29,11,59,19.30
2020,09,29,12,00,19.30
2020,09,29,12,01,19.30
2020,09,29,12,02,19.30
2020,09,29,12,03,19.40
2020,09,29,12,04,19.40
2020,09,29,12,05,19.40
2020,09,29,12,06,19.40
2020,09,29,12,07,19.40
2020,09,29,12,08,19.40
2020,09,29,12,09,19.40
2020,09,29,12,10,19.30
2020,09,29,12,11,19.30
2020,09,29,12,12,19.40
2020,09,29,12,13,19.40
2020,09,29,12,14,19.40
2020,09,29,12,15,19.40
2020,09,29,12,16,19.40
2020,09,29,12,17,19.40
2020,09,29,12,18,19.50
2020,09,29,12,19,19.50
2020,09,29,12,20,19.60
2020,09,29,12,21,19.70
2020,09,29,12,22,19.70
2020,09,29,12,23,19.70
2020,09,29,12,24,19.80
2020,09,29,12,25,19.80
2020,09,29,12,26,19.90
2020,09,29,12,27,20.00
2020,09,29,12,28,20.00
2020,09,29,12,29,20.10
2020,09,29,12,30,20.10
2020,09,29,12,31,20.20
2020,09,29,12,32,20.20
2020,09,29,12,33,20.20
2020,09,29,12,34,20.20
2020,09,29,12,35,20.10
2020,09,29,12,36,20.10
2020,09,29,12,37,20.00
2020,09,29,12,38,19.90
2020,09,29,12,39,19.90
2020,09,29,12,40,19.90
2020,09,29,12,41,19.90
2020,09,29,12,42,19.90
2020,09,29,12,43,19.90
2020,09,29,12,44,19.90
2020,09,29,12,45,19.90
2020,09,29,12,46,20.00
2020,09,29,12,47,20.00
2020,09,29,12,48,20.00
2020,09,29,12,49,20.10
2020,09,29,12,50,20.10
2020,09,29,12,51,20.20
2020,09,29,12,52,20.10
2020,09,29,12,53,20.10
2020,09,29,12,54,20.10
2020,09,29,12,55,20.10
2020,09,29,12,56,20.10
2020,09,29,12,57,20.20
2020,09,29,12,58,20.20
2020,09,29,12,59,20.30
2020,09,29,13,00,20.30
2020,09,29,13,01,20.30
2020,09,29,13,02,20.40
2020,09,29,13,03,20.60
2020,09,29,13,04,20.70
2020,09,29,13,05,20.70
2020,09,29,13,06,20.80
2020,09,29,13,07,20.80
2020,09,29,13,08,20.90
2020,09,29,13,09,20.80
2020,09,29,13,10,20.70
2020,09,29,13,11,20.60
2020,09,29,13,12,20.60
2020,09,29,13,13,20.50
2020,09,29,13,14,20.50
2020,09,29,13,15,20.50
2020,09,29,13,16,20.60
2020,09,29,13,17,20.80
2020,09,29,13,18,20.90
2020,09,29,13,19,21.00
2020,09,29,13,20,21.00
2020,09,29,13,21,21.00
2020,09,29,13,22,20.90
2020,09,29,13,23,20.90
2020,09,29,13,24,20.90
2020,09,29,13,25,20.90
2020,09,29,13,26,20.90
2020,09,29,13,27,20.80
2020,09,29,13,28,20.80
2020,09,29,13,29,20.70
2020,09,29,13,30,20.70
2020,09,29,13,31,20.60
2020,09,29,13,32,20.60
2020,09,29,13,33,20.60
2020,09,29,13,34,20.60
2020,09,29,13,35,20.50
2020,09,29,13,36,20.50
2020,09,29,13,37,20.50
2020,09,29,13,38,20.60
2020,09,29,13,39,20.60
2020,09,29,13,40,20.60
2020,09,29,13,41,20.70
2020,09,29,13,42,20.70
2020,09,29,13,43,20.70
2020,09,29,13,44,20.70
2020,09,29,13,45,20.70
2020,09,29,13,46,20.70
2020,09,29,13,47,20.70
2020,09,29,13,48,20.70
2020,09,29,13,49,20.80
2020,09,29,13,50,20.80
2020,09,29,13,51,20.80
2020,09,29,13,52,20.80
2020,09,29,13,53,20.80
2020,09,29,13,54,20.80
2020,09,29,13,55,20.80
2020,09,29,13,56,20.80
2020,09,29,13,57,20.80
2020,09,29,13,58,20.80
2020,09,29,13,59,20.90
2020,09,29,14,00,21.00
2020,09,29,14,01,21.00
2020,09,29,14,02,21.10
2020,09,29,14,03,21.10
2020,09,29,14,04,21.10
2020,09,29,14,05,21.10
2020,09,29,14,06,21.20
2020,09,29,14,07,21.20
2020,09,29,14,08,21.30
2020,09,29,14,09,21.30
2020,09,29,14,10,21.30
2020,09,29,14,11,21.30
2020,09,29,14,12,21.20
2020,09,29,14,13,21.20
2020,09,29,14,14,21.10
2020,09,29,14,15,21.10
2020,09,29,14,16,21.10
2020,09,29,14,17,21.10
2020,09,29,14,18,21.10
2020,09,29,14,19,21.10
2020,09,29,14,20,21.10
2020,09,29,14,21,21.10
2020,09,29,14,22,21.10
2020,09,29,14,23,21.10
2020,09,29,14,24,21.20
2020,09,29,14,25,21.10
2020,09,29,14,26,21.10
2020,09,29,14,27,21.20
2020,09,29,14,28,21.20
2020,09,29,14,29,21.20
2020,09,29,14,30,21.20
2020,09,29,14,31,21.20
2020,09,29,14,32,21.20
2020,09,29,14,33,21.30
2020,09,29,14,34,21.30
2020,09,29,14,35,21.30
2020,09,29,14,36,21.30
2020,09,29,14,37,21.30
2020,09,29,14,38,21.30
2020,09,29,14,39,21.30
2020,09,29,14,40,21.30
2020,09,29,14,41,21.30
2020,09,29,14,42,21.40
2020,09,29,14,43,21.40
2020,09,29,14,44,21.40
2020,09,29,14,45,21.50
2020,09,29,14,46,21.50
2020,09,29,14,47,21.50
2020,09,29,14,48,21.60
2020,09,29,14,49,21.60
2020,09,29,14,50,21.70
2020,09,29,14,51,21.70
2020,09,29,14,52,21.80
2020,09,29,14,53,21.80
2020,09,29,14,54,21.80
2020,09,29,14,55,21.90
2020,09,29,14,56,21.90
2020,09,29,14,57,21.80
2020,09,29,14,58,21.90
2020,09,29,14,59,21.90
2020,09,29,15,00,22.00
2020,09,29,15,01,22.00
2020,09,29,15,02,22.00
2020,09,29,15,03,22.00
2020,09,29,15,04,22.00
2020,09,29,15,05,22.00
2020,09,29,15,06,22.00
2020,09,29,15,07,22.00
2020,09,29,15,08,22.00
2020,09,29,15,09,22.00
2020,09,29,15,10,22.00
2020,09,29,15,11,22.00
2020,09,29,15,12,21.90
2020,09,29,15,13,21.90
2020,09,29,15,14,21.90
2020,09,29,15,15,21.80
2020,09,29,15,16,21.80
2020,09,29,15,17,21.70
2020,09,29,15,18,21.60
2020,09,29,15,19,21.60
2020,09,29,15,20,21.50
2020,09,29,15,21,21.50
2020,09,29,15,22,21.40
2020,09,29,15,23,21.40
2020,09,29,15,24,21.40
2020,09,29,15,25,21.40
2020,09,29,15,26,21.30
2020,09,29,15,27,21.30
2020,09,29,15,28,21.30
2020,09,29,15,29,21.30
2020,09,29,15,30,21.30
2020,09,29,15,31,21.30
2020,09,29,15,32,21.30
2020,09,29,15,33,21.30
2020,09,29,15,34,21.40
2020,09,29,15,35,21.40
2020,09,29,15,36,21.40
2020,09,29,15,37,21.40
2020,09,29,15,38,21.40
2020,09,29,15,39,21.50
2020,09,29,15,40,21.40
2020,09,29,15,41,21.40
2020,09,29,15,42,21.50
2020,09,29,15,43,21.50
2020,09,29,15,44,21.60
2020,09,29,15,45,21.60
2020,09,29,15,46,21.60
2020,09,29,15,47,21.60
2020,09,29,15,48,21.60
2020,09,29,15,49,21.60
2020,09,29,15,50,21.60
2020,09,29,15,51,21.60
2020,09,29,15,52,21.70
2020,09,29,15,53,21.70
2020,09,29,15,54,21.70
2020,09,29,15,55,21.70
2020,09,29,15,56,21.70
2020,09,29,15,57,21.70
2020,09,29,15,58,21.70
2020,09,29,15,59,21.70
2020,09,29,16,00,21.70
2020,09,29,16,01,21.70
2020,09,29,16,02,21.70
2020,09,29,16,03,21.60
2020,09,29,16,04,21.60
2020,09,29,16,05,21.60
2020,09,29,16,06,21.60
2020,09,29,16,07,21.60
2020,09,29,16,08,21.60
2020,09,29,16,09,21.60
2020,09,29,16,10,21.50
2020,09,29,16,11,21.50
2020,09,29,16,12,21.40
2020,09,29,16,13,21.30
2020,09,29,16,14,21.30
2020,09,29,16,15,21.30
2020,09,29,16,16,21.20
2020,09,29,16,17,21.20
2020,09,29,16,18,21.20
2020,09,29,16,19,21.20
2020,09,29,16,20,21.20
2020,09,29,16,21,21.20
2020,09,29,16,22,21.20
2020,09,29,16,23,21.10
2020,09,29,16,24,21.10
2020,09,29,16,25,21.10
2020,09,29,16,26,21.10
2020,09,29,16,27,21.10
2020,09,29,16,28,21.10
2020,09,29,16,29,21.00
2020,09,29,16,30,20.90
2020,09,29,16,31,20.90
2020,09,29,16,32,20.80
2020,09,29,16,33,20.80
2020,09,29,16,34,20.70
2020,09,29,16,35,20.70
2020,09,29,16,36,20.70
2020,09,29,16,37,20.60
2020,09,29,16,38,20.60
2020,09,29,16,39,20.50
2020,09,29,16,40,20.50
2020,09,29,16,41,20.50
2020,09,29,16,42,20.40
2020,09,29,16,43,20.40
2020,09,29,16,44,20.40
2020,09,29,16,45,20.40
2020,09,29,16,46,20.40
2020,09,29,16,47,20.40
2020,09,29,16,48,20.40
2020,09,29,16,49,20.30
2020,09,29,16,50,20.30
2020,09,29,16,51,20.30
2020,09,29,16,52,20.30
2020,09,29,16,53,20.30
2020,09,29,16,54,20.30
2020,09,29,16,55,20.30
2020,09,29,16,56,20.30
2020,09,29,16,57,20.30
2020,09,29,16,58,20.20
2020,09,29,16,59,20.20
2020,09,29,17,00,20.20
2020,09,29,17,01,20.20
2020,09,29,17,02,20.10
2020,09,29,17,03,20.10
2020,09,29,17,04,20.10
2020,09,29,17,05,20.10
2020,09,29,17,06,20.10
2020,09,29,17,07,20.10
2020,09,29,17,08,20.00
2020,09,29,17,09,20.00
2020,09,29,17,10,19.90
2020,09,29,17,11,19.90
2020,09,29,17,12,19.90
2020,09,29,17,13,19.90
2020,09,29,17,14,19.80
2020,09,29,17,15,19.80
2020,09,29,17,16,19.80
2020,09,29,17,17,19.80
2020,09,29,17,18,19.80
2020,09,29,17,19,19.80
2020,09,29,17,20,19.70
2020,09,29,17,21,19.70
2020,09,29,17,22,19.70
2020,09,29,17,23,19.70
2020,09,29,17,24,19.70
2020,09,29,17,25,19.70
2020,09,29,17,26,19.60
2020,09,29,17,27,19.60
2020,09,29,17,28,19.60
2020,09,29,17,29,19.60
2020,09,29,17,30,19.50
2020,09,29,17,31,19.50
2020,09,29,17,32,19.40
2020,09,29,17,33,19.30
2020,09,29,17,34,19.30
2020,09,29,17,35,19.30
2020,09,29,17,36,19.30
2020,09,29,17,37,19.20
2020,09,29,17,38,19.20
2020,09,29,17,39,19.10
2020,09,29,17,40,19.10
2020,09,29,17,41,19.00
2020,09,29,17,42,18.90
2020,09,29,17,43,18.90
2020,09,29,17,44,18.90
2020,09,29,17,45,18.80
2020,09,29,17,46,18.80
2020,09,29,17,47,18.80
2020,09,29,17,48,18.70
2020,09,29,17,49,18.70
2020,09,29,17,50,18.70
2020,09,29,17,51,18.70
2020,09,29,17,52,18.70
2020,09,29,17,53,18.60
2020,09,29,17,54,18.60
2020,09,29,17,55,18.60
2020,09,29,17,56,18.50
2020,09,29,17,57,18.50
2020,09,29,17,58,18.40
2020,09,29,17,59,18.40
2020,09,29,18,00,18.40
2020,09,29,18,01,18.30
2020,09,29,18,02,18.30
2020,09,29,18,03,18.30
2020,09,29,18,04,18.30
2020,09,29,18,05,18.20
2020,09,29,18,06,18.20
2020,09,29,18,07,18.20
2020,09,29,18,08,18.20
2020,09,29,18,09,18.20
2020,09,29,18,10,18.20
2020,09,29,18,11,18.10
2020,09,29,18,12,18.10
2020,09,29,18,13,18.10
2020,09,29,18,14,18.10
2020,09,29,18,15,18.10
2020,09,29,18,16,18.00
2020,09,29,18,17,18.00
2020,09,29,18,18,17.90
2020,09,29,18,19,17.90
2020,09,29,18,20,17.90
2020,09,29,18,21,17.90
2020,09,29,18,22,17.90
2020,09,29,18,23,17.90
2020,09,29,18,24,17.90
2020,09,29,18,25,17.90
2020,09,29,18,26,17.90
2020,09,29,18,27,17.90
2020,09,29,18,28,17.90
